Year,Month,Day,Hour,Minute,Value (Times are PST for temperature in C)
2011,11,17,00,00,4.90
2011,11,17,00,01,4.90
2011,11,17,00,02,4.90
2011,11,17,00,03,4.90
2011,11,17,00,04,4.90
2011,11,17,00,05,4.90
2011,11,17,00,06,4.90
2011,11,17,00,07,4.90
2011,11,17,00,08,4.90
2011,11,17,00,09,4.90
2011,11,17,00,10,4.90
2011,11,17,00,11,4.90
2011,11,17,00,12,4.90
2011,11,17,00,13,5.00
2011,11,17,00,14,5.10
2011,11,17,00,15,5.10
2011,11,17,00,16,5.30
2011,11,17,00,17,5.30
2011,11,17,00,18,5.30
2011,11,17,00,19,5.40
2011,11,17,00,20,5.50
2011,11,17,00,21,5.50
2011,11,17,00,22,5.50
2011,11,17,00,23,5.50
2011,11,17,00,24,5.50
2011,11,17,00,25,5.60
2011,11,17,00,26,5.60
2011,11,17,00,27,5.70
2011,11,17,00,28,5.70
2011,11,17,00,29,5.70
2011,11,17,00,30,5.70
2011,11,17,00,31,5.80
2011,11,17,00,32,5.80
2011,11,17,00,33,5.80
2011,11,17,00,34,5.80
2011,11,17,00,35,5.80
2011,11,17,00,36,5.80
2011,11,17,00,37,5.80
2011,11,17,00,38,5.80
2011,11,17,00,39,5.70
2011,11,17,00,40,5.70
2011,11,17,00,41,5.60
2011,11,17,00,42,5.50
2011,11,17,00,43,5.40
2011,11,17,00,44,5.30
2011,11,17,00,45,5.30
2011,11,17,00,46,5.20
2011,11,17,00,47,5.10
2011,11,17,00,48,5.10
2011,11,17,00,49,5.00
2011,11,17,00,50,4.90
2011,11,17,00,51,4.90
2011,11,17,00,52,4.90
2011,11,17,00,53,4.90
2011,11,17,00,54,4.90
2011,11,17,00,55,4.90
2011,11,17,00,56,4.80
2011,11,17,00,57,4.80
2011,11,17,00,58,4.80
2011,11,17,00,59,4.80
2011,11,17,01,00,4.90
2011,11,17,01,01,4.90
2011,11,17,01,02,5.10
2011,11,17,01,03,5.10
2011,11,17,01,04,5.20
2011,11,17,01,05,5.30
2011,11,17,01,06,5.30
2011,11,17,01,07,5.40
2011,11,17,01,08,5.50
2011,11,17,01,09,5.50
2011,11,17,01,10,5.50
2011,11,17,01,11,5.50
2011,11,17,01,12,5.40
2011,11,17,01,13,5.40
2011,11,17,01,14,5.40
2011,11,17,01,15,5.30
2011,11,17,01,16,5.30
2011,11,17,01,17,5.20
2011,11,17,01,18,5.10
2011,11,17,01,19,5.10
2011,11,17,01,20,5.00
2011,11,17,01,21,4.90
2011,11,17,01,22,4.90
2011,11,17,01,23,4.90
2011,11,17,01,24,4.90
2011,11,17,01,25,4.90
2011,11,17,01,26,4.90
2011,11,17,01,27,4.80
2011,11,17,01,28,4.80
2011,11,17,01,29,4.80
2011,11,17,01,30,4.80
2011,11,17,01,31,4.80
2011,11,17,01,32,4.80
2011,11,17,01,33,4.80
2011,11,17,01,34,4.70
2011,11,17,01,35,4.70
2011,11,17,01,36,4.70
2011,11,17,01,37,4.70
2011,11,17,01,38,4.70
2011,11,17,01,39,4.70
2011,11,17,01,40,4.80
2011,11,17,01,41,4.80
2011,11,17,01,42,4.80
2011,11,17,01,43,4.80
2011,11,17,01,44,4.80
2011,11,17,01,45,4.80
2011,11,17,01,46,4.80
2011,11,17,01,47,4.80
2011,11,17,01,48,4.80
2011,11,17,01,49,4.80
2011,11,17,01,50,4.80
2011,11,17,01,51,4.80
2011,11,17,01,52,4.80
2011,11,17,01,53,4.80
2011,11,17,01,54,4.80
2011,11,17,01,55,4.80
2011,11,17,01,56,4.80
2011,11,17,01,57,4.80
2011,11,17,01,58,4.90
2011,11,17,01,59,4.90
2011,11,17,02,00,4.90
2011,11,17,02,01,5.00
2011,11,17,02,02,5.10
2011,11,17,02,03,5.20
2011,11,17,02,04,5.30
2011,11,17,02,05,5.50
2011,11,17,02,06,5.50
2011,11,17,02,07,5.60
2011,11,17,02,08,5.70
2011,11,17,02,09,5.70
2011,11,17,02,10,5.70
2011,11,17,02,11,5.70
2011,11,17,02,12,5.70
2011,11,17,02,13,5.80
2011,11,17,02,14,5.80
2011,11,17,02,15,5.80
2011,11,17,02,16,5.80
2011,11,17,02,17,5.80
2011,11,17,02,18,5.80
2011,11,17,02,19,5.80
2011,11,17,02,20,5.80
2011,11,17,02,21,5.80
2011,11,17,02,22,5.80
2011,11,17,02,23,5.80
2011,11,17,02,24,5.90
2011,11,17,02,25,5.90
2011,11,17,02,26,5.90
2011,11,17,02,27,5.90
2011,11,17,02,28,5.80
2011,11,17,02,29,5.80
2011,11,17,02,30,5.80
2011,11,17,02,31,5.80
2011,11,17,02,32,5.80
2011,11,17,02,33,5.80
2011,11,17,02,34,5.70
2011,11,17,02,35,5.70
2011,11,17,02,36,5.70
2011,11,17,02,37,5.70
2011,11,17,02,38,5.70
2011,11,17,02,39,5.70
2011,11,17,02,40,5.70
2011,11,17,02,41,5.60
2011,11,17,02,42,5.60
2011,11,17,02,43,5.60
2011,11,17,02,44,5.60
2011,11,17,02,45,5.60
2011,11,17,02,46,5.60
2011,11,17,02,47,5.60
2011,11,17,02,48,5.60
2011,11,17,02,49,5.60
2011,11,17,02,50,5.60
2011,11,17,02,51,5.60
2011,11,17,02,52,5.70
2011,11,17,02,53,5.70
2011,11,17,02,54,5.70
2011,11,17,02,55,5.70
2011,11,17,02,56,5.70
2011,11,17,02,57,5.80
2011,11,17,02,58,5.80
2011,11,17,02,59,5.90
2011,11,17,03,00,5.90
2011,11,17,03,01,6.00
2011,11,17,03,02,5.90
2011,11,17,03,03,5.60
2011,11,17,03,04,5.20
2011,11,17,03,05,4.80
2011,11,17,03,06,4.50
2011,11,17,03,07,4.20
2011,11,17,03,08,4.00
2011,11,17,03,09,3.80
2011,11,17,03,10,3.60
2011,11,17,03,11,3.50
2011,11,17,03,12,3.40
2011,11,17,03,13,3.30
2011,11,17,03,14,3.30
2011,11,17,03,15,3.30
2011,11,17,03,16,3.20
2011,11,17,03,17,3.20
2011,11,17,03,18,3.20
2011,11,17,03,19,3.20
2011,11,17,03,20,3.10
2011,11,17,03,21,3.10
2011,11,17,03,22,3.10
2011,11,17,03,23,3.10
2011,11,17,03,24,3.10
2011,11,17,03,25,3.10
2011,11,17,03,26,3.10
2011,11,17,03,27,3.10
2011,11,17,03,28,3.10
2011,11,17,03,29,3.10
2011,11,17,03,30,3.10
2011,11,17,03,31,3.10
2011,11,17,03,32,3.10
2011,11,17,03,33,3.10
2011,11,17,03,34,3.10
2011,11,17,03,35,3.10
2011,11,17,03,36,3.10
2011,11,17,03,37,3.10
2011,11,17,03,38,3.10
2011,11,17,03,39,3.10
2011,11,17,03,40,3.10
2011,11,17,03,41,3.20
2011,11,17,03,42,3.20
2011,11,17,03,43,3.20
2011,11,17,03,44,3.20
2011,11,17,03,45,3.30
2011,11,17,03,46,3.30
2011,11,17,03,47,3.30
2011,11,17,03,48,3.30
2011,11,17,03,49,3.40
2011,11,17,03,50,3.40
2011,11,17,03,51,3.50
2011,11,17,03,52,3.50
2011,11,17,03,53,3.50
2011,11,17,03,54,3.60
2011,11,17,03,55,3.60
2011,11,17,03,56,3.60
2011,11,17,03,57,3.70
2011,11,17,03,58,3.70
2011,11,17,03,59,3.70
2011,11,17,04,00,3.70
2011,11,17,04,01,3.80
2011,11,17,04,02,3.80
2011,11,17,04,03,3.80
2011,11,17,04,04,4.00
2011,11,17,04,05,4.00
2011,11,17,04,06,4.10
2011,11,17,04,07,4.20
2011,11,17,04,08,4.30
2011,11,17,04,09,4.40
2011,11,17,04,10,4.50
2011,11,17,04,11,4.50
2011,11,17,04,12,4.50
2011,11,17,04,13,4.50
2011,11,17,04,14,4.60
2011,11,17,04,15,4.60
2011,11,17,04,16,4.60
2011,11,17,04,17,4.60
2011,11,17,04,18,4.60
2011,11,17,04,19,4.60
2011,11,17,04,20,4.60
2011,11,17,04,21,4.60
2011,11,17,04,22,4.60
2011,11,17,04,23,4.60
2011,11,17,04,24,4.60
2011,11,17,04,25,4.60
2011,11,17,04,26,4.60
2011,11,17,04,27,4.70
2011,11,17,04,28,4.70
2011,11,17,04,29,4.70
2011,11,17,04,30,4.70
2011,11,17,04,31,4.70
2011,11,17,04,32,4.70
2011,11,17,04,33,4.70
2011,11,17,04,34,4.70
2011,11,17,04,35,4.80
2011,11,17,04,36,4.80
2011,11,17,04,37,4.80
2011,11,17,04,38,4.90
2011,11,17,04,39,4.90
2011,11,17,04,40,4.90
2011,11,17,04,41,4.90
2011,11,17,04,42,4.90
2011,11,17,04,43,4.90
2011,11,17,04,44,4.90
2011,11,17,04,45,4.90
2011,11,17,04,46,4.90
2011,11,17,04,47,4.90
2011,11,17,04,48,4.90
2011,11,17,04,49,4.90
2011,11,17,04,50,4.90
2011,11,17,04,51,4.90
2011,11,17,04,52,4.90
2011,11,17,04,53,4.80
2011,11,17,04,54,4.80
2011,11,17,04,55,4.70
2011,11,17,04,56,4.60
2011,11,17,04,57,4.70
2011,11,17,04,58,4.70
2011,11,17,04,59,4.70
2011,11,17,05,00,4.70
2011,11,17,05,01,4.70
2011,11,17,05,02,4.60
2011,11,17,05,03,4.60
2011,11,17,05,04,4.50
2011,11,17,05,05,4.40
2011,11,17,05,06,4.30
2011,11,17,05,07,4.20
2011,11,17,05,08,4.10
2011,11,17,05,09,4.00
2011,11,17,05,10,4.00
2011,11,17,05,11,3.90
2011,11,17,05,12,3.80
2011,11,17,05,13,3.80
2011,11,17,05,14,3.80
2011,11,17,05,15,3.70
2011,11,17,05,16,3.70
2011,11,17,05,17,3.60
2011,11,17,05,18,3.60
2011,11,17,05,19,3.60
2011,11,17,05,20,3.60
2011,11,17,05,21,3.50
2011,11,17,05,22,3.50
2011,11,17,05,23,3.50
2011,11,17,05,24,3.50
2011,11,17,05,25,3.50
2011,11,17,05,26,3.50
2011,11,17,05,27,3.40
2011,11,17,05,28,3.40
2011,11,17,05,29,3.40
2011,11,17,05,30,3.40
2011,11,17,05,31,3.40
2011,11,17,05,32,3.30
2011,11,17,05,33,3.30
2011,11,17,05,34,3.30
2011,11,17,05,35,3.30
2011,11,17,05,36,3.30
2011,11,17,05,37,3.30
2011,11,17,05,38,3.30
2011,11,17,05,39,3.30
2011,11,17,05,40,3.30
2011,11,17,05,41,3.40
2011,11,17,05,42,3.40
2011,11,17,05,43,3.50
2011,11,17,05,44,3.50
2011,11,17,05,45,3.50
2011,11,17,05,46,3.60
2011,11,17,05,47,3.60
2011,11,17,05,48,3.60
2011,11,17,05,49,3.60
2011,11,17,05,50,3.60
2011,11,17,05,51,3.60
2011,11,17,05,52,3.70
2011,11,17,05,53,3.70
2011,11,17,05,54,3.70
2011,11,17,05,55,3.60
2011,11,17,05,56,3.60
2011,11,17,05,57,3.60
2011,11,17,05,58,3.60
2011,11,17,05,59,3.50
2011,11,17,06,00,3.40
2011,11,17,06,01,3.40
2011,11,17,06,02,3.30
2011,11,17,06,03,3.30
2011,11,17,06,04,3.30
2011,11,17,06,05,3.30
2011,11,17,06,06,3.20
2011,11,17,06,07,3.20
2011,11,17,06,08,3.10
2011,11,17,06,09,3.10
2011,11,17,06,10,3.10
2011,11,17,06,11,3.10
2011,11,17,06,12,3.10
2011,11,17,06,13,3.10
2011,11,17,06,14,3.10
2011,11,17,06,15,3.10
2011,11,17,06,16,3.10
2011,11,17,06,17,3.10
2011,11,17,06,18,3.10
2011,11,17,06,19,3.10
2011,11,17,06,20,3.10
2011,11,17,06,21,3.00
2011,11,17,06,22,2.90
2011,11,17,06,23,2.90
2011,11,17,06,24,2.90
2011,11,17,06,25,2.90
2011,11,17,06,26,2.90
2011,11,17,06,27,2.90
2011,11,17,06,28,2.90
2011,11,17,06,29,2.90
2011,11,17,06,30,2.90
2011,11,17,06,31,2.90
2011,11,17,06,32,2.90
2011,11,17,06,33,2.90
2011,11,17,06,34,2.90
2011,11,17,06,35,2.90
2011,11,17,06,36,3.00
2011,11,17,06,37,3.10
2011,11,17,06,38,3.10
2011,11,17,06,39,3.10
2011,11,17,06,40,3.10
2011,11,17,06,41,3.10
2011,11,17,06,42,3.10
2011,11,17,06,43,3.10
2011,11,17,06,44,3.10
2011,11,17,06,45,3.10
2011,11,17,06,46,3.10
2011,11,17,06,47,3.10
2011,11,17,06,48,3.10
2011,11,17,06,49,3.20
2011,11,17,06,50,3.20
2011,11,17,06,51,3.20
2011,11,17,06,52,3.20
2011,11,17,06,53,3.20
2011,11,17,06,54,3.20
2011,11,17,06,55,3.20
2011,11,17,06,56,3.20
2011,11,17,06,57,3.20
2011,11,17,06,58,3.20
2011,11,17,06,59,3.20
2011,11,17,07,00,3.20
2011,11,17,07,01,3.20
2011,11,17,07,02,3.20
2011,11,17,07,03,3.20
2011,11,17,07,04,3.30
2011,11,17,07,05,3.30
2011,11,17,07,06,3.40
2011,11,17,07,07,3.40
2011,11,17,07,08,3.50
2011,11,17,07,09,3.50
2011,11,17,07,10,3.50
2011,11,17,07,11,3.60
2011,11,17,07,12,3.60
2011,11,17,07,13,3.70
2011,11,17,07,14,3.70
2011,11,17,07,15,3.70
2011,11,17,07,16,3.80
2011,11,17,07,17,3.80
2011,11,17,07,18,3.90
2011,11,17,07,19,4.00
2011,11,17,07,20,4.00
2011,11,17,07,21,4.10
2011,11,17,07,22,4.20
2011,11,17,07,23,4.20
2011,11,17,07,24,4.30
2011,11,17,07,25,4.40
2011,11,17,07,26,4.40
2011,11,17,07,27,4.40
2011,11,17,07,28,4.40
2011,11,17,07,29,4.40
2011,11,17,07,30,4.40
2011,11,17,07,31,4.50
2011,11,17,07,32,4.50
2011,11,17,07,33,4.50
2011,11,17,07,34,4.50
2011,11,17,07,35,4.50
2011,11,17,07,36,4.40
2011,11,17,07,37,4.30
2011,11,17,07,38,4.30
2011,11,17,07,39,4.20
2011,11,17,07,40,4.20
2011,11,17,07,41,4.10
2011,11,17,07,42,4.10
2011,11,17,07,43,4.00
2011,11,17,07,44,4.00
2011,11,17,07,45,3.90
2011,11,17,07,46,3.80
2011,11,17,07,47,3.80
2011,11,17,07,48,3.80
2011,11,17,07,49,3.70
2011,11,17,07,50,3.70
2011,11,17,07,51,3.70
2011,11,17,07,52,3.60
2011,11,17,07,53,3.60
2011,11,17,07,54,3.60
2011,11,17,07,55,3.50
2011,11,17,07,56,3.50
2011,11,17,07,57,3.50
2011,11,17,07,58,3.50
2011,11,17,07,59,3.40
2011,11,17,08,00,3.40
2011,11,17,08,01,3.40
2011,11,17,08,02,3.40
2011,11,17,08,03,3.30
2011,11,17,08,04,3.30
2011,11,17,08,05,3.30
2011,11,17,08,06,3.30
2011,11,17,08,07,3.30
2011,11,17,08,08,3.30
2011,11,17,08,09,3.30
2011,11,17,08,10,3.30
2011,11,17,08,11,3.30
2011,11,17,08,12,3.30
2011,11,17,08,13,3.30
2011,11,17,08,14,3.30
2011,11,17,08,15,3.30
2011,11,17,08,16,3.30
2011,11,17,08,17,3.30
2011,11,17,08,18,3.30
2011,11,17,08,19,3.30
2011,11,17,08,20,3.30
2011,11,17,08,21,3.30
2011,11,17,08,22,3.30
2011,11,17,08,23,3.30
2011,11,17,08,24,3.30
2011,11,17,08,25,3.30
2011,11,17,08,26,3.30
2011,11,17,08,27,3.30
2011,11,17,08,28,3.30
2011,11,17,08,29,3.30
2011,11,17,08,30,3.30
2011,11,17,08,31,3.30
2011,11,17,08,32,3.40
2011,11,17,08,33,3.40
2011,11,17,08,34,3.40
2011,11,17,08,35,3.40
2011,11,17,08,36,3.50
2011,11,17,08,37,3.50
2011,11,17,08,38,3.50
2011,11,17,08,39,3.50
2011,11,17,08,40,3.50
2011,11,17,08,41,3.50
2011,11,17,08,42,3.50
2011,11,17,08,43,3.50
2011,11,17,08,44,3.50
2011,11,17,08,45,3.60
2011,11,17,08,46,3.60
2011,11,17,08,47,3.60
2011,11,17,08,48,3.60
2011,11,17,08,49,3.70
2011,11,17,08,50,3.70
2011,11,17,08,51,3.70
2011,11,17,08,52,3.80
2011,11,17,08,53,3.80
2011,11,17,08,54,3.80
2011,11,17,08,55,3.90
2011,11,17,08,56,4.00
2011,11,17,08,57,4.20
2011,11,17,08,58,4.20
2011,11,17,08,59,4.10
2011,11,17,09,00,4.00
2011,11,17,09,01,3.90
2011,11,17,09,02,3.90
2011,11,17,09,03,3.80
2011,11,17,09,04,3.80
2011,11,17,09,05,3.80
2011,11,17,09,06,3.80
2011,11,17,09,07,3.80
2011,11,17,09,08,3.80
2011,11,17,09,09,3.80
2011,11,17,09,10,3.80
2011,11,17,09,11,3.90
2011,11,17,09,12,3.90
2011,11,17,09,13,3.90
2011,11,17,09,14,3.90
2011,11,17,09,15,3.90
2011,11,17,09,16,3.80
2011,11,17,09,17,3.70
2011,11,17,09,18,3.60
2011,11,17,09,19,3.50
2011,11,17,09,20,3.40
2011,11,17,09,21,3.30
2011,11,17,09,22,3.30
2011,11,17,09,23,3.30
2011,11,17,09,24,3.40
2011,11,17,09,25,3.40
2011,11,17,09,26,3.40
2011,11,17,09,27,3.50
2011,11,17,09,28,3.50
2011,11,17,09,29,3.60
2011,11,17,09,30,3.60
2011,11,17,09,31,3.70
2011,11,17,09,32,3.70
2011,11,17,09,33,3.70
2011,11,17,09,34,3.70
2011,11,17,09,35,3.80
2011,11,17,09,36,3.80
2011,11,17,09,37,3.80
2011,11,17,09,38,3.80
2011,11,17,09,39,3.90
2011,11,17,09,40,4.00
2011,11,17,09,41,4.00
2011,11,17,09,42,4.10
2011,11,17,09,43,4.10
2011,11,17,09,44,4.20
2011,11,17,09,45,4.20
2011,11,17,09,46,4.30
2011,11,17,09,47,4.40
2011,11,17,09,48,4.40
2011,11,17,09,49,4.50
2011,11,17,09,50,4.50
2011,11,17,09,51,4.50
2011,11,17,09,52,4.50
2011,11,17,09,53,4.50
2011,11,17,09,54,4.60
2011,11,17,09,55,4.60
2011,11,17,09,56,4.60
2011,11,17,09,57,4.60
2011,11,17,09,58,4.60
2011,11,17,09,59,4.60
2011,11,17,10,00,4.60
2011,11,17,10,01,4.60
2011,11,17,10,02,4.60
2011,11,17,10,03,4.60
2011,11,17,10,04,4.60
2011,11,17,10,05,4.60
2011,11,17,10,06,4.60
2011,11,17,10,07,4.60
2011,11,17,10,08,4.60
2011,11,17,10,09,4.60
2011,11,17,10,10,4.60
2011,11,17,10,11,4.60
2011,11,17,10,12,4.60
2011,11,17,10,13,4.60
2011,11,17,10,14,4.70
2011,11,17,10,15,4.70
2011,11,17,10,16,4.70
2011,11,17,10,17,4.70
2011,11,17,10,18,4.70
2011,11,17,10,19,4.70
2011,11,17,10,20,4.70
2011,11,17,10,21,4.70
2011,11,17,10,22,4.60
2011,11,17,10,23,4.70
2011,11,17,10,24,4.60
2011,11,17,10,25,4.60
2011,11,17,10,26,4.70
2011,11,17,10,27,4.70
2011,11,17,10,28,4.60
2011,11,17,10,29,4.60
2011,11,17,10,30,4.50
2011,11,17,10,31,4.50
2011,11,17,10,32,4.40
2011,11,17,10,33,4.40
2011,11,17,10,34,4.40
2011,11,17,10,35,4.40
2011,11,17,10,36,4.40
2011,11,17,10,37,4.40
2011,11,17,10,38,4.40
2011,11,17,10,39,4.30
2011,11,17,10,40,4.30
2011,11,17,10,41,4.40
2011,11,17,10,42,4.40
2011,11,17,10,43,4.30
2011,11,17,10,44,4.30
2011,11,17,10,45,4.30
2011,11,17,10,46,4.30
2011,11,17,10,47,4.30
2011,11,17,10,48,4.20
2011,11,17,10,49,4.20
2011,11,17,10,50,4.20
2011,11,17,10,51,4.20
2011,11,17,10,52,4.20
2011,11,17,10,53,4.20
2011,11,17,10,54,4.20
2011,11,17,10,55,4.10
2011,11,17,10,56,4.10
2011,11,17,10,57,4.10
2011,11,17,10,58,4.10
2011,11,17,10,59,4.10
2011,11,17,11,00,4.00
2011,11,17,11,01,4.00
2011,11,17,11,02,4.00
2011,11,17,11,03,4.00
2011,11,17,11,04,4.10
2011,11,17,11,05,4.10
2011,11,17,11,06,4.00
2011,11,17,11,07,3.90
2011,11,17,11,08,3.90
2011,11,17,11,09,3.80
2011,11,17,11,10,3.80
2011,11,17,11,11,3.80
2011,11,17,11,12,3.80
2011,11,17,11,13,3.80
2011,11,17,11,14,3.70
2011,11,17,11,15,3.70
2011,11,17,11,16,3.70
2011,11,17,11,17,3.70
2011,11,17,11,18,3.70
2011,11,17,11,19,3.70
2011,11,17,11,20,3.70
2011,11,17,11,21,3.80
2011,11,17,11,22,3.80
2011,11,17,11,23,3.80
2011,11,17,11,24,3.80
2011,11,17,11,25,3.80
2011,11,17,11,26,3.80
2011,11,17,11,27,3.80
2011,11,17,11,28,3.80
2011,11,17,11,29,3.80
2011,11,17,11,30,3.70
2011,11,17,11,31,3.70
2011,11,17,11,32,3.70
2011,11,17,11,33,3.70
2011,11,17,11,34,3.70
2011,11,17,11,35,3.70
2011,11,17,11,36,3.80
2011,11,17,11,37,3.80
2011,11,17,11,38,3.80
2011,11,17,11,39,3.80
2011,11,17,11,40,3.80
2011,11,17,11,41,3.80
2011,11,17,11,42,3.80
2011,11,17,11,43,3.80
2011,11,17,11,44,3.80
2011,11,17,11,45,3.90
2011,11,17,11,46,3.90
2011,11,17,11,47,3.90
2011,11,17,11,48,3.90
2011,11,17,11,49,4.00
2011,11,17,11,50,3.90
2011,11,17,11,51,4.00
2011,11,17,11,52,4.00
2011,11,17,11,53,4.00
2011,11,17,11,54,4.10
2011,11,17,11,55,4.10
2011,11,17,11,56,4.10
2011,11,17,11,57,4.00
2011,11,17,11,58,4.00
2011,11,17,11,59,4.00
2011,11,17,12,00,4.00
2011,11,17,12,01,4.10
2011,11,17,12,02,4.10
2011,11,17,12,03,4.10
2011,11,17,12,04,4.10
2011,11,17,12,05,4.10
2011,11,17,12,06,4.20
2011,11,17,12,07,4.20
2011,11,17,12,08,4.20
2011,11,17,12,09,4.20
2011,11,17,12,10,4.20
2011,11,17,12,11,4.20
2011,11,17,12,12,4.20
2011,11,17,12,13,4.20
2011,11,17,12,14,4.20
2011,11,17,12,15,4.20
2011,11,17,12,16,4.20
2011,11,17,12,17,4.20
2011,11,17,12,18,4.20
2011,11,17,12,19,4.20
2011,11,17,12,20,4.20
2011,11,17,12,21,4.20
2011,11,17,12,22,4.20
2011,11,17,12,23,4.10
2011,11,17,12,24,4.10
2011,11,17,12,25,4.10
2011,11,17,12,26,4.00
2011,11,17,12,27,4.00
2011,11,17,12,28,3.90
2011,11,17,12,29,3.90
2011,11,17,12,30,3.80
2011,11,17,12,31,3.60
2011,11,17,12,32,3.50
2011,11,17,12,33,3.40
2011,11,17,12,34,3.30
2011,11,17,12,35,3.30
2011,11,17,12,36,3.30
2011,11,17,12,37,3.20
2011,11,17,12,38,3.20
2011,11,17,12,39,3.20
2011,11,17,12,40,3.10
2011,11,17,12,41,3.10
2011,11,17,12,42,3.00
2011,11,17,12,43,2.90
2011,11,17,12,44,2.90
2011,11,17,12,45,2.80
2011,11,17,12,46,2.80
2011,11,17,12,47,2.70
2011,11,17,12,48,2.70
2011,11,17,12,49,2.70
2011,11,17,12,50,2.70
2011,11,17,12,51,2.70
2011,11,17,12,52,2.60
2011,11,17,12,53,2.60
2011,11,17,12,54,2.50
2011,11,17,12,55,2.50
2011,11,17,12,56,2.50
2011,11,17,12,57,2.50
2011,11,17,12,58,2.40
2011,11,17,12,59,2.40
2011,11,17,13,00,2.30
2011,11,17,13,01,2.30
2011,11,17,13,02,2.30
2011,11,17,13,03,2.30
2011,11,17,13,04,2.30
2011,11,17,13,05,2.30
2011,11,17,13,06,2.30
2011,11,17,13,07,2.30
2011,11,17,13,08,2.30
2011,11,17,13,09,2.30
2011,11,17,13,10,2.30
2011,11,17,13,11,2.30
2011,11,17,13,12,2.30
2011,11,17,13,13,2.30
2011,11,17,13,14,2.30
2011,11,17,13,15,2.30
2011,11,17,13,16,2.30
2011,11,17,13,17,2.30
2011,11,17,13,18,2.40
2011,11,17,13,19,2.40
2011,11,17,13,20,2.40
2011,11,17,13,21,2.40
2011,11,17,13,22,2.50
2011,11,17,13,23,2.50
2011,11,17,13,24,2.50
2011,11,17,13,25,2.50
2011,11,17,13,26,2.50
2011,11,17,13,27,2.50
2011,11,17,13,28,2.60
2011,11,17,13,29,2.60
2011,11,17,13,30,2.60
2011,11,17,13,31,2.70
2011,11,17,13,32,2.70
2011,11,17,13,33,2.70
2011,11,17,13,34,2.70
2011,11,17,13,35,2.70
2011,11,17,13,36,2.70
2011,11,17,13,37,2.70
2011,11,17,13,38,2.70
2011,11,17,13,39,2.70
2011,11,17,13,40,2.70
2011,11,17,13,41,2.70
2011,11,17,13,42,2.70
2011,11,17,13,43,2.70
2011,11,17,13,44,2.70
2011,11,17,13,45,2.70
2011,11,17,13,46,2.70
2011,11,17,13,47,2.70
2011,11,17,13,48,2.70
2011,11,17,13,49,2.70
2011,11,17,13,50,2.70
2011,11,17,13,51,2.70
2011,11,17,13,52,2.70
2011,11,17,13,53,2.70
2011,11,17,13,54,2.60
2011,11,17,13,55,2.60
2011,11,17,13,56,2.60
2011,11,17,13,57,2.50
2011,11,17,13,58,2.50
2011,11,17,13,59,2.50
2011,11,17,14,00,2.50
2011,11,17,14,01,2.50
2011,11,17,14,02,2.50
2011,11,17,14,03,2.50
2011,11,17,14,04,2.50
2011,11,17,14,05,2.50
2011,11,17,14,06,2.50
2011,11,17,14,07,2.50
2011,11,17,14,08,2.50
2011,11,17,14,09,2.40
2011,11,17,14,10,2.40
2011,11,17,14,11,2.40
2011,11,17,14,12,2.40
2011,11,17,14,13,2.40
2011,11,17,14,14,2.40
2011,11,17,14,15,2.40
2011,11,17,14,16,2.40
2011,11,17,14,17,2.40
2011,11,17,14,18,2.40
2011,11,17,14,19,2.50
2011,11,17,14,20,2.50
2011,11,17,14,21,2.50
2011,11,17,14,22,2.50
2011,11,17,14,23,2.50
2011,11,17,14,24,2.50
2011,11,17,14,25,2.50
2011,11,17,14,26,2.50
2011,11,17,14,27,2.40
2011,11,17,14,28,2.40
2011,11,17,14,29,2.40
2011,11,17,14,30,2.40
2011,11,17,14,31,2.40
2011,11,17,14,32,2.30
2011,11,17,14,33,2.30
2011,11,17,14,34,2.20
2011,11,17,14,35,2.20
2011,11,17,14,36,2.20
2011,11,17,14,37,2.20
2011,11,17,14,38,2.20
2011,11,17,14,39,2.10
2011,11,17,14,40,2.10
2011,11,17,14,41,2.10
2011,11,17,14,42,2.00
2011,11,17,14,43,2.00
2011,11,17,14,44,1.90
2011,11,17,14,45,1.90
2011,11,17,14,46,1.90
2011,11,17,14,47,1.80
2011,11,17,14,48,1.80
2011,11,17,14,49,1.80
2011,11,17,14,50,1.80
2011,11,17,14,51,1.70
2011,11,17,14,52,1.70
2011,11,17,14,53,1.70
2011,11,17,14,54,1.60
2011,11,17,14,55,1.60
2011,11,17,14,56,1.60
2011,11,17,14,57,1.50
2011,11,17,14,58,1.50
2011,11,17,14,59,1.50
2011,11,17,15,00,1.40
2011,11,17,15,01,1.40
2011,11,17,15,02,1.40
2011,11,17,15,03,1.30
2011,11,17,15,04,1.30
2011,11,17,15,05,1.30
2011,11,17,15,06,1.30
2011,11,17,15,07,1.30
2011,11,17,15,08,1.20
2011,11,17,15,09,1.20
2011,11,17,15,10,1.20
2011,11,17,15,11,1.20
2011,11,17,15,12,1.10
2011,11,17,15,13,1.10
2011,11,17,15,14,1.10
2011,11,17,15,15,1.10
2011,11,17,15,16,1.10
2011,11,17,15,17,1.10
2011,11,17,15,18,1.10
2011,11,17,15,19,1.10
2011,11,17,15,20,1.10
2011,11,17,15,21,1.10
2011,11,17,15,22,1.10
2011,11,17,15,23,1.10
2011,11,17,15,24,1.10
2011,11,17,15,25,1.10
2011,11,17,15,26,1.10
2011,11,17,15,27,1.10
2011,11,17,15,28,1.10
2011,11,17,15,29,1.20
2011,11,17,15,30,1.20
2011,11,17,15,31,1.20
2011,11,17,15,32,1.20
2011,11,17,15,33,1.20
2011,11,17,15,34,1.20
2011,11,17,15,35,1.20
2011,11,17,15,36,1.20
2011,11,17,15,37,1.20
2011,11,17,15,38,1.20
2011,11,17,15,39,1.20
2011,11,17,15,40,1.30
2011,11,17,15,41,1.30
2011,11,17,15,42,1.30
2011,11,17,15,43,1.30
2011,11,17,15,44,1.30
2011,11,17,15,45,1.30
2011,11,17,15,46,1.30
2011,11,17,15,47,1.30
2011,11,17,15,48,1.20
2011,11,17,15,49,1.20
2011,11,17,15,50,1.20
2011,11,17,15,51,1.20
2011,11,17,15,52,1.20
2011,11,17,15,53,1.20
2011,11,17,15,54,1.20
2011,11,17,15,55,1.20
2011,11,17,15,56,1.20
2011,11,17,15,57,1.20
2011,11,17,15,58,1.20
2011,11,17,15,59,1.20
2011,11,17,16,00,1.20
2011,11,17,16,01,1.20
2011,11,17,16,02,1.20
2011,11,17,16,03,1.20
2011,11,17,16,04,1.20
2011,11,17,16,05,1.20
2011,11,17,16,06,1.20
2011,11,17,16,07,1.20
2011,11,17,16,08,1.20
2011,11,17,16,09,1.20
2011,11,17,16,10,1.20
2011,11,17,16,11,1.20
2011,11,17,16,12,1.20
2011,11,17,16,13,1.20
2011,11,17,16,14,1.20
2011,11,17,16,15,1.20
2011,11,17,16,16,1.20
2011,11,17,16,17,1.20
2011,11,17,16,18,1.20
2011,11,17,16,19,1.20
2011,11,17,16,20,1.20
2011,11,17,16,21,1.30
2011,11,17,16,22,1.30
2011,11,17,16,23,1.30
2011,11,17,16,24,1.30
2011,11,17,16,25,1.30
2011,11,17,16,26,1.30
2011,11,17,16,27,1.30
2011,11,17,16,28,1.30
2011,11,17,16,29,1.30
2011,11,17,16,30,1.30
2011,11,17,16,31,1.30
2011,11,17,16,32,1.30
2011,11,17,16,33,1.30
2011,11,17,16,34,1.30
2011,11,17,16,35,1.30
2011,11,17,16,36,1.30
2011,11,17,16,37,1.30
2011,11,17,16,38,1.30
2011,11,17,16,39,1.30
2011,11,17,16,40,1.20
2011,11,17,16,41,1.20
2011,11,17,16,42,1.20
2011,11,17,16,43,1.20
2011,11,17,16,44,1.20
2011,11,17,16,45,1.20
2011,11,17,16,46,1.10
2011,11,17,16,47,1.10
2011,11,17,16,48,1.10
2011,11,17,16,49,1.10
2011,11,17,16,50,1.00
2011,11,17,16,51,1.00
2011,11,17,16,52,1.00
2011,11,17,16,53,1.00
2011,11,17,16,54,0.90
2011,11,17,16,55,0.90
2011,11,17,16,56,0.90
2011,11,17,16,57,0.90
2011,11,17,16,58,0.80
2011,11,17,16,59,0.80
2011,11,17,17,00,0.80
2011,11,17,17,01,0.80
2011,11,17,17,02,0.80
2011,11,17,17,03,0.80
2011,11,17,17,04,0.80
2011,11,17,17,05,0.80
2011,11,17,17,06,0.80
2011,11,17,17,07,0.70
2011,11,17,17,08,0.70
2011,11,17,17,09,0.80
2011,11,17,17,10,0.80
2011,11,17,17,11,0.80
2011,11,17,17,12,0.80
2011,11,17,17,13,0.80
2011,11,17,17,14,0.80
2011,11,17,17,15,0.80
2011,11,17,17,16,0.80
2011,11,17,17,17,0.70
2011,11,17,17,18,0.70
2011,11,17,17,19,0.70
2011,11,17,17,20,0.70
2011,11,17,17,21,0.70
2011,11,17,17,22,0.70
2011,11,17,17,23,0.70
2011,11,17,17,24,0.70
2011,11,17,17,25,0.70
2011,11,17,17,26,0.70
2011,11,17,17,27,0.70
2011,11,17,17,28,0.70
2011,11,17,17,29,0.70
2011,11,17,17,30,0.70
2011,11,17,17,31,0.70
2011,11,17,17,32,0.70
2011,11,17,17,33,0.70
2011,11,17,17,34,0.70
2011,11,17,17,35,0.70
2011,11,17,17,36,0.70
2011,11,17,17,37,0.70
2011,11,17,17,38,0.70
2011,11,17,17,39,0.70
2011,11,17,17,40,0.70
2011,11,17,17,41,0.70
2011,11,17,17,42,0.70
2011,11,17,17,43,0.70
2011,11,17,17,44,0.70
2011,11,17,17,45,0.70
2011,11,17,17,46,0.70
2011,11,17,17,47,0.70
2011,11,17,17,48,0.60
2011,11,17,17,49,0.60
2011,11,17,17,50,0.60
2011,11,17,17,51,0.60
2011,11,17,17,52,0.60
2011,11,17,17,53,0.50
2011,11,17,17,54,0.50
2011,11,17,17,55,0.50
2011,11,17,17,56,0.50
2011,11,17,17,57,0.50
2011,11,17,17,58,0.50
2011,11,17,17,59,0.40
2011,11,17,18,00,0.40
2011,11,17,18,01,0.40
2011,11,17,18,02,0.40
2011,11,17,18,03,0.40
2011,11,17,18,04,0.40
2011,11,17,18,05,0.40
2011,11,17,18,06,0.40